Wind_Speed
35 34 32 30 29 27 25 24 23 22 20 17 15 16 13 10 10 8 9 9 8 8 9 10 10 13 14 13 11 10 14 13 6 22 21 24 30 32 31 26 25 22 25
37 38 35 31 29 26 27 24 24 23 20 20 17 16 16 14 12 10 10 10 10 11 13 12 12 12 10 12 12 12 15 15 13 17 24 25 27 30 26 35 24 24 26
40 41 37 33 33 32 29 25 24 23 20 20 18 17 15 13 11 11 11 12 12 11 11 12 12 10 12 15 15 18 20 23 20 13 20 21 23 23 32 29 30 28 26
37 37 39 36 34 31 29 25 24 23 22 20 18 17 14 12 13 14 13 12 11 11 12 12 9 10 11 14 18 21 24 23 20 14 14 19 20 26 25 28 34 29 34
37 38 37 36 31 29 28 27 26 23 22 19 18 17 17 18 19 15 12 12 12 12 12 13 8 8 12 16 19 23 20 19 18 14 14 15 18 25 25 28 27 34 33
35 33 38 37 35 33 30 28 24 23 20 18 19 19 20 20 18 14 12 11 11 12 14 14 8 13 18 19 19 16 11 15 15 15 12 14 18 22 24 27 27 26 9
36 34 37 36 34 30 28 25 24 22 19 20 19 18 19 20 19 16 12 10 10 11 11 12 12 17 19 19 17 15 16 15 12 19 18 19 21 27 28 29 27 26 27
33 33 35 33 31 29 27 26 23 19 18 18 19 19 19 21 21 18 16 14 11 12 12 13 15 18 18 19 20 19 19 18 19 20 22 24 23 26 27 26 28 28 28
30 30 32 32 30 28 26 23 20 18 18 19 18 18 20 21 20 19 18 19 17 14 13 14 14 17 19 21 22 19 21 21 21 22 18 18 24 22 26 25 21 22 19
31 32 32 30 28 26 22 20 19 19 20 18 18 17 19 20 17 18 18 17 20 18 17 17 15 18 19 19 20 19 23 26 26 28 23 27 25 26 21 20 22 19 18
35 34 32 29 26 22 19 18 18 18 19 19 18 16 20 21 20 19 19 17 18 18 21 21 21 20 21 19 22 21 24 24 25 26 24 26 25 27 25 25 23 21 21
33 32 30 28 26 25 23 22 18 20 22 20 14 16 19 21 20 23 24 22 20 22 24 23 22 22 21 20 25 21 26 25 24 24 23 25 28 30 32 30 27 27 26
36 32 27 24 22 23 25 25 27 26 21 17 19 20 19 22 22 23 24 23 22 22 22 21 21 22 22 22 24 23 26 26 26 25 25 26 28 30 31 30 30 26 25
34 32 31 30 28 26 25 24 24 24 24 23 21 20 20 22 22 23 22 20 21 20 20 22 21 23 25 24 23 24 25 26 25 25 25 27 30 29 30 32 31 33 29
32 32 32 31 32 32 31 28 26 23 23 22 19 18 19 23 22 18 21 21 18 20 20 23 25 24 23 26 24 25 27 28 29 28 27 29 29 31 31 33 29 31 25
30 30 30 29 29 30 30 27 25 24 21 19 17 18 19 21 18 18 19 19 19 19 23 25 25 23 22 24 24 25 26 28 30 28 27 27 28 31 33 33 30 29 27
29 28 27 26 26 26 26 25 21 16 16 16 15 16 18 19 19 17 17 19 21 22 24 26 23 20 21 24 25 24 26 29 30 29 27 28 29 31 32 33 32 32 31
26 24 22 21 20 20 20 20 19 18 17 16 15 13 15 17 17 17 18 19 23 23 23 25 21 20 23 25 26 25 27 30 30 31 30 28 30 30 32 32 32 33 32
29 24 21 20 18 15 16 18 18 19 18 16 14 16 16 16 16 19 18 21 20 21 21 23 18 20 27 29 30 28 29 31 32 32 29 29 31 30 30 32 33 33 33
25 23 21 21 20 20 20 21 18 18 17 16 17 16 13 15 18 19 19 19 20 18 18 19 17 19 25 31 33 33 33 32 32 30 27 30 31 30 30 32 33 32 32
24 24 23 21 19 18 18 18 16 16 16 17 16 15 14 16 16 17 19 18 19 17 17 17 16 19 25 31 34 34 34 34 33 27 29 33 34 31 32 31 32 31 31
22 22 21 20 20 19 16 18 15 14 15 18 17 15 14 15 15 15 17 15 16 16 15 15 14 18 24 29 33 34 34 35 34 32 29 33 35 32 32 32 32 34 32
19 17 16 17 18 19 20 18 19 18 17 15 15 14 14 14 14 14 15 14 15 16 16 16 14 19 24 28 31 32 32 33 31 30 33 34 34 31 33 31 30 32 33
20 20 21 20 20 22 21 19 17 16 16 15 14 13 12 11 12 12 12 13 14 15 16 15 16 20 24 28 30 31 29 29 29 29 29 31 31 32 31 31 31 33 31
22 23 23 23 21 21 21 19 17 15 14 13 11 10 10 9 10 11 11 12 13 14 15 14 17 21 25 27 29 29 28 29 29 28 29 31 30 31 31 30 32 31 34
16 17 18 18 17 14 14 15 14 12 10 10 9 7 7 7 8 10 9 11 13 12 13 15 18 22 24 26 27 28 27 28 29 29 29 31 32 33 32 31 33 30 32
Wind_Direction
134 136 140 146 147 149 144 141 139 134 133 135 129 123 124 112 109 104 81 56 43 18 2 353 347 345 340 339 340 331 333 337 305 312 314 317 331 337 336 334 330 331 324
128 130 134 137 136 135 137 137 136 131 127 126 124 125 113 101 92 79 55 29 7 351 343 337 349 350 353 349 347 346 341 341 329 312 315 323 331 336 328 327 324 327 324
124 126 127 130 133 134 134 132 129 128 124 123 122 111 99 84 69 49 27 7 354 356 355 359 0 356 3 356 351 353 344 330 326 308 307 325 327 332 330 330 324 324 323
118 120 120 127 127 128 130 131 129 126 121 114 106 97 83 63 40 24 14 11 16 19 15 24 23 358 6 359 354 349 335 335 338 323 319 325 335 333 329 327 323 325 321
115 116 122 130 130 128 127 126 122 119 111 106 98 81 63 43 26 18 29 24 17 29 23 27 22 8 2 358 352 341 337 339 334 336 336 334 337 340 338 326 318 318 318
114 112 123 125 125 124 121 119 117 109 106 99 82 67 51 39 27 34 36 44 36 16 12 21 32 356 357 354 346 352 352 356 350 340 333 328 329 326 329 328 319 324 320
110 112 116 119 118 118 116 114 110 107 102 86 73 58 54 43 33 40 36 31 26 29 24 24 23 6 359 359 5 15 13 3 342 339 327 313 312 318 322 323 316 310 297
107 108 113 117 115 116 115 110 109 107 97 90 80 67 54 43 35 40 37 36 41 45 43 22 7 10 15 7 3 6 12 10 358 344 333 328 321 320 324 320 312 306 301
106 107 112 116 116 115 112 115 115 108 100 96 83 67 45 35 35 35 36 40 42 41 34 31 26 10 3 355 353 0 11 6 357 348 345 342 334 330 327 327 325 323 318
108 112 115 114 111 111 113 118 118 111 107 101 85 61 38 37 38 35 35 38 41 34 34 27 28 14 11 19 18 12 9 359 354 350 353 347 346 338 339 334 323 315 315
113 111 111 111 108 110 112 115 118 117 114 105 90 54 53 51 48 43 34 37 35 33 34 36 37 36 29 43 27 20 13 359 350 352 344 339 340 342 339 334 325 312 302
106 109 112 112 110 105 106 121 114 125 115 105 84 64 59 53 51 47 54 54 57 47 44 45 41 38 38 34 24 20 7 6 357 352 346 342 339 337 335 331 325 317 301
111 108 107 107 108 109 108 106 105 110 107 95 82 73 61 53 57 55 54 53 55 52 50 48 44 39 35 30 21 20 10 6 2 357 349 340 336 331 330 333 334 330 323
111 106 103 101 102 101 101 103 102 99 92 89 84 73 61 52 52 53 47 49 52 50 49 46 45 40 34 23 17 16 11 7 3 354 344 339 336 338 340 341 335 341 339
117 114 109 107 102 98 93 94 97 94 87 85 79 71 56 47 47 49 47 44 47 46 49 43 40 36 27 19 14 12 8 6 3 356 350 346 343 341 341 341 343 343 342
122 122 122 118 112 106 102 100 96 94 89 81 72 70 66 59 58 60 52 53 50 50 51 39 35 38 27 17 12 7 6 4 359 354 352 351 347 342 339 342 346 348 341
133 134 131 127 124 121 115 108 106 101 91 80 74 73 71 62 58 61 53 55 53 54 50 40 34 39 25 18 12 8 2 359 360 357 351 350 350 346 345 345 345 345 343
138 138 134 136 133 131 124 111 96 95 95 78 79 87 70 67 63 60 55 53 49 52 48 41 38 35 26 19 13 7 2 0 360 359 356 353 351 349 347 347 345 341 341
130 132 131 128 129 139 136 124 100 97 89 88 96 93 80 74 67 62 60 52 46 47 48 40 40 30 25 20 14 9 7 4 3 1 356 351 350 350 346 345 343 341 342
112 117 119 117 116 118 130 136 115 99 88 88 95 94 91 77 65 56 55 50 44 47 44 39 38 28 23 19 15 12 8 5 3 2 352 351 350 349 346 344 344 341 342
117 118 117 114 113 115 120 138 125 114 95 93 99 94 91 82 70 58 50 50 41 43 39 33 35 25 20 17 14 13 11 7 5 359 353 355 354 346 345 344 343 344 343
116 115 118 113 107 101 116 115 119 118 112 102 100 94 94 84 70 58 49 51 40 37 35 28 32 24 19 16 13 11 10 8 7 1 353 356 357 351 346 346 346 346 347
116 111 118 122 112 104 104 113 111 109 104 102 104 92 94 84 71 58 48 49 39 35 30 27 28 20 13 11 11 11 8 7 5 5 1 0 358 352 347 345 346 347 346
119 113 110 121 115 106 104 104 110 106 101 99 106 94 90 87 65 52 45 41 32 30 28 26 19 10 4 4 6 7 6 5 6 5 5 5 356 351 350 347 349 345 347
117 112 111 111 112 108 101 100 102 107 95 89 102 98 87 84 55 43 35 29 25 25 24 19 9 2 358 358 1 2 2 2 4 8 8 8 0 356 355 352 349 347 348
122 120 118 117 115 113 107 100 103 102 97 81 87 102 89 85 49 35 31 21 18 19 10 2 357 353 351 353 357 359 360 1 2 7 10 9 5 359 358 356 353 351 349
Height
721 729 739 749 755 764 770 775 780 783 787 793 796 798 801 802 800 797 798 797 796 797 795 793 791 789 787 785 782 780 779 777 774 768 767 763 756 753 749 746 743 738 732
728 735 743 752 759 767 775 780 785 788 793 795 797 802 802 801 799 798 798 798 797 795 792 790 787 785 785 783 780 778 777 775 773 768 762 758 754 750 747 742 739 734 728
729 736 747 758 765 773 781 785 788 790 793 797 801 801 802 803 801 799 798 798 796 793 790 788 785 784 783 781 780 777 774 772 770 767 760 757 752 750 743 738 733 727 723
733 740 747 761 769 776 782 787 790 793 795 799 801 803 804 804 802 800 798 797 794 791 789 788 785 784 782 781 779 776 773 770 767 764 760 755 752 748 744 737 725 723 713
738 745 756 765 772 779 785 789 792 795 797 801 804 806 805 804 802 799 797 794 792 790 790 788 787 785 783 781 778 775 772 770 767 763 760 756 753 747 744 738 730 718 709
747 754 761 769 775 782 788 791 795 798 804 806 806 806 805 806 803 799 796 794 793 792 791 788 787 786 783 780 778 775 774 771 769 765 761 757 753 750 744 739 731 721 706
753 762 767 773 780 786 791 796 800 804 807 806 806 807 807 807 805 799 796 795 794 792 790 789 788 786 783 780 778 776 774 772 770 767 761 758 753 749 744 736 730 724 713
761 768 773 779 784 790 796 799 803 806 806 807 808 810 810 807 804 800 798 796 793 791 790 790 788 786 785 782 779 776 774 771 768 765 762 756 752 748 743 736 727 718 709
769 774 779 784 788 794 797 801 805 807 809 810 811 811 811 808 804 802 799 796 794 793 792 790 789 788 787 784 781 778 774 771 768 763 759 755 751 746 739 731 723 717 704
772 777 782 787 792 796 801 804 806 808 810 812 813 814 812 807 806 804 802 799 796 795 793 792 791 790 788 786 782 779 775 771 765 759 755 750 746 741 735 729 723 716 711
775 780 785 791 795 799 803 806 808 810 810 813 815 815 812 810 809 806 804 800 798 798 797 795 795 793 790 788 786 782 779 773 766 760 754 748 742 736 730 725 720 715 709
780 785 792 797 800 802 803 807 807 810 813 816 817 815 814 813 812 809 805 803 803 803 800 800 799 796 793 790 788 785 780 773 766 759 754 747 741 734 726 721 715 709 703
786 793 797 799 803 805 807 809 810 813 816 818 817 818 819 817 814 813 811 810 807 807 806 804 802 799 796 793 790 786 780 773 767 761 755 749 743 735 726 718 710 702 695
792 797 800 803 808 809 811 812 814 817 818 819 821 822 821 819 817 816 815 814 811 810 809 807 805 802 799 796 791 787 782 777 771 766 759 752 743 735 726 718 707 698 689
797 801 805 811 813 814 815 817 818 822 823 823 824 824 824 822 821 819 818 818 816 814 813 810 806 804 801 798 793 789 784 778 772 767 760 753 745 735 727 718 710 700 694
801 806 811 815 817 818 820 823 825 825 827 828 828 827 826 825 825 823 822 820 819 818 815 812 810 808 806 802 797 792 786 781 775 769 763 757 748 739 729 719 711 704 695
807 812 815 818 821 823 825 826 827 830 831 831 831 832 830 829 828 827 825 824 823 821 818 816 814 812 810 806 801 796 790 785 779 772 766 759 752 743 733 723 714 706 695
811 816 819 822 824 827 829 829 830 831 832 833 834 835 834 833 832 830 828 827 826 824 822 820 818 816 813 809 804 799 793 787 780 774 767 761 754 747 737 728 719 711 701
815 820 822 824 826 828 831 832 833 834 834 836 837 838 838 837 836 834 832 831 830 828 826 823 822 819 816 812 807 801 796 789 783 776 769 763 756 750 742 733 724 715 706
820 822 825 827 829 831 833 835 835 837 838 838 840 839 842 840 839 837 835 834 833 831 829 827 825 822 819 814 809 803 797 791 785 778 773 766 759 753 745 737 728 718 709
824 827 829 831 833 834 836 837 838 840 841 842 843 843 844 843 842 841 839 838 836 834 832 829 827 825 821 816 810 805 799 794 787 782 776 769 762 754 746 740 732 724 715
829 831 833 835 837 838 838 840 842 843 844 844 846 846 845 846 845 844 842 841 839 837 834 832 830 826 822 817 812 806 801 796 790 784 779 772 765 757 750 742 734 726 719
832 834 836 839 839 841 841 844 846 846 847 847 848 849 848 848 848 847 845 843 841 839 836 834 831 827 823 819 814 809 803 798 793 788 781 773 767 761 753 746 739 731 722
836 838 839 841 841 843 844 846 849 849 850 850 851 851 850 850 850 849 847 845 843 840 837 834 831 828 824 819 815 810 806 801 795 789 783 776 769 764 757 749 742 734 727
839 840 841 844 846 848 849 849 851 852 853 853 853 852 852 852 851 850 848 846 844 841 838 835 832 828 824 819 815 810 806 801 796 790 784 778 772 767 760 753 746 737 730
843 844 846 846 848 850 852 852 853 854 855 855 854 854 853 853 852 851 849 846 844 841 838 835 832 828 823 819 815 811 806 801 795 790 785 779 774 768 762 755 748 742 734